TimeGMT,TemperatureF,Dew PointF,Humidity,Sea Level PressureIn,VisibilityMPH,Wind Direction,Wind SpeedMPH,Gust SpeedMPH,PrecipitationIn,Events,Conditions,WindDirDegrees,DateUTC
12:20 AM,35.6,32.0,87,29.98,2.5,WSW,6.9,-,N/A,,Haze,240,2012-11-06 00:20:00
12:50 AM,35.6,32.0,87,29.98,3.1,WSW,6.9,-,N/A,,Haze,250,2012-11-06 00:50:00
1:20 AM,35.6,32.0,87,29.98,4.3,WSW,9.2,-,N/A,,Unknown,240,2012-11-06 01:20:00
1:50 AM,35.6,32.0,87,29.95,-9999.0,WSW,9.2,-,N/A,,Clear,240,2012-11-06 01:50:00
2:20 AM,37.4,33.8,87,29.95,6.2,West,5.8,-,N/A,,Partly Cloudy,260,2012-11-06 02:20:00
2:50 AM,37.4,35.6,93,29.92,6.2,WSW,8.1,-,N/A,Rain,Light Rain,240,2012-11-06 02:50:00
3:20 AM,41.0,37.4,87,29.92,6.2,WSW,12.7,-,N/A,Rain,Light Rain,250,2012-11-06 03:20:00
3:50 AM,42.8,39.2,87,29.92,6.2,WSW,12.7,-,N/A,,Partly Cloudy,250,2012-11-06 03:50:00
4:20 AM,42.8,39.2,87,29.92,6.2,WSW,10.4,-,N/A,,Mostly Cloudy,240,2012-11-06 04:20:00
4:50 AM,42.8,41.0,93,29.89,6.2,WSW,13.8,-,N/A,,Mostly Cloudy,250,2012-11-06 04:50:00
5:20 AM,44.6,42.8,93,29.89,6.2,WSW,15.0,-,N/A,,Mostly Cloudy,240,2012-11-06 05:20:00
5:50 AM,44.6,42.8,93,29.89,6.2,WSW,16.1,-,N/A,,Mostly Cloudy,240,2012-11-06 05:50:00
6:20 AM,44.6,42.8,93,29.86,6.2,WSW,16.1,-,N/A,,Mostly Cloudy,240,2012-11-06 06:20:00
6:50 AM,46.4,44.6,93,29.86,6.2,WSW,13.8,-,N/A,,Mostly Cloudy,240,2012-11-06 06:50:00
7:20 AM,48.2,44.6,87,29.89,6.2,WSW,16.1,-,N/A,Rain,Light Rain,250,2012-11-06 07:20:00
7:50 AM,48.2,46.4,93,29.86,6.2,WSW,18.4,-,N/A,Rain,Light Rain,250,2012-11-06 07:50:00
8:20 AM,48.2,44.6,87,29.86,6.2,WSW,16.1,-,N/A,Rain,Light Rain,250,2012-11-06 08:20:00
8:50 AM,48.2,44.6,87,29.89,6.2,WSW,17.3,-,N/A,Rain,Light Rain,250,2012-11-06 08:50:00
9:20 AM,48.2,46.4,93,29.86,6.2,WSW,17.3,-,N/A,,Partly Cloudy,250,2012-11-06 09:20:00
9:50 AM,48.2,46.4,93,29.86,6.2,WSW,17.3,-,N/A,,Partly Cloudy,250,2012-11-06 09:50:00
10:20 AM,50.0,46.4,87,29.89,6.2,WSW,17.3,-,N/A,,Scattered Clouds,250,2012-11-06 10:20:00
10:50 AM,50.0,46.4,87,29.89,6.2,West,18.4,-,N/A,,Partly Cloudy,260,2012-11-06 10:50:00
11:20 AM,50.0,46.4,87,29.89,6.2,West,15.0,-,N/A,,Partly Cloudy,260,2012-11-06 11:20:00
11:50 AM,50.0,46.4,87,29.89,6.2,West,16.1,-,N/A,,Partly Cloudy,260,2012-11-06 11:50:00
12:20 PM,51.8,46.4,82,29.89,6.2,West,16.1,-,N/A,,Partly Cloudy,260,2012-11-06 12:20:00
12:50 PM,51.8,46.4,82,29.89,6.2,West,16.1,-,N/A,,Partly Cloudy,260,2012-11-06 12:50:00
1:20 PM,51.8,48.2,88,29.89,6.2,West,16.1,-,N/A,,Partly Cloudy,260,2012-11-06 13:20:00
1:50 PM,51.8,48.2,88,29.92,6.2,West,16.1,-,N/A,,Partly Cloudy,260,2012-11-06 13:50:00
2:20 PM,51.8,48.2,88,29.92,6.2,WSW,16.1,-,N/A,,Partly Cloudy,250,2012-11-06 14:20:00
2:50 PM,53.6,48.2,82,29.92,6.2,WSW,17.3,-,N/A,,Partly Cloudy,250,2012-11-06 14:50:00
3:20 PM,51.8,48.2,88,29.95,6.2,WSW,15.0,-,N/A,,Partly Cloudy,240,2012-11-06 15:20:00
3:50 PM,51.8,48.2,88,29.95,6.2,West,13.8,-,N/A,,Partly Cloudy,270,2012-11-06 15:50:00
4:20 PM,51.8,46.4,82,29.95,6.2,West,12.7,-,N/A,,Partly Cloudy,260,2012-11-06 16:20:00
4:50 PM,51.8,46.4,82,29.95,6.2,WSW,15.0,-,N/A,,Partly Cloudy,240,2012-11-06 16:50:00
5:20 PM,51.8,46.4,82,29.98,6.2,West,16.1,-,N/A,,Partly Cloudy,270,2012-11-06 17:20:00
5:50 PM,51.8,46.4,82,29.98,6.2,West,16.1,-,N/A,,Partly Cloudy,260,2012-11-06 17:50:00
6:20 PM,51.8,46.4,82,29.98,6.2,West,15.0,-,N/A,,Partly Cloudy,260,2012-11-06 18:20:00
6:50 PM,50.0,46.4,87,30.01,6.2,WSW,15.0,-,N/A,,Scattered Clouds,250,2012-11-06 18:50:00
7:20 PM,50.0,46.4,87,30.01,6.2,WSW,12.7,-,N/A,,Scattered Clouds,250,2012-11-06 19:20:00
7:50 PM,50.0,46.4,87,30.01,6.2,WSW,18.4,-,N/A,,Scattered Clouds,250,2012-11-06 19:50:00
8:20 PM,50.0,44.6,82,30.01,6.2,West,16.1,-,N/A,,Scattered Clouds,260,2012-11-06 20:20:00
8:50 PM,48.2,42.8,82,30.01,6.2,West,13.8,-,N/A,,Partly Cloudy,260,2012-11-06 20:50:00
9:20 PM,48.2,42.8,82,30.01,6.2,West,17.3,-,N/A,,Partly Cloudy,260,2012-11-06 21:20:00
9:50 PM,48.2,42.8,82,30.04,6.2,WSW,17.3,-,N/A,,Partly Cloudy,250,2012-11-06 21:50:00
10:20 PM,48.2,42.8,82,30.04,6.2,West,16.1,-,N/A,,Scattered Clouds,260,2012-11-06 22:20:00
10:50 PM,48.2,41.0,76,30.01,6.2,WSW,13.8,-,N/A,,Partly Cloudy,250,2012-11-06 22:50:00
11:20 PM,48.2,42.8,82,30.01,6.2,WSW,17.3,-,N/A,,Scattered Clouds,250,2012-11-06 23:20:00
11:50 PM,48.2,42.8,82,30.04,6.2,West,15.0,-,N/A,,Mostly Cloudy,260,2012-11-06 23:50:00